Waarnemingen

Advertentie
Mijn weer
Landivisiau, Frankrijk (7106): temperatuur & dauwpunt: 13.02.2020 22:00:00 - 19.02.2020 22:00:00 (CET)Landivisiau, Frankrijk (7106): temperatuur 5cm: 13.02.2020 22:00:00 - 19.02.2020 22:00:00 (CET)Landivisiau, Frankrijk (7106): temperatuur -20cm: 13.02.2020 22:00:00 - 19.02.2020 22:00:00 (CET)Landivisiau, Frankrijk (7106): windsnelheid & windstoten: 13.02.2020 22:00:00 - 19.02.2020 22:00:00 (CET)Landivisiau, Frankrijk (7106): windrichting: 13.02.2020 22:00:00 - 19.02.2020 22:00:00 (CET)Landivisiau, Frankrijk (7106): luchtdruk: 13.02.2020 22:00:00 - 19.02.2020 22:00:00 (CET)Landivisiau, Frankrijk (7106): zicht: 13.02.2020 22:00:00 - 19.02.2020 22:00:00 (CET)Landivisiau, Frankrijk (7106): neerslag: 13.02.2020 22:00:00 - 19.02.2020 22:00:00 (CET)
Datum & Tijd tt [°C] td [°C] tt 5cm [°C] tt -20cm [°C] ff [km/u] ff [kn] fx [km/u] fx [kn] dd ppp [hPa] vv [km] rr [mm]
19.02.2020 22:00:00 8,6 6,9 7,9 9,1 24 13 - - ZW 1021,4 16 0,0
19.02.2020 21:00:00 9,1 6,7 8,1 9,1 24 13 - - ZW 1021,8 17 0,0
19.02.2020 20:00:00 8,8 7,1 7,9 9,1 24 13 - - ZW 1022,5 20 0,0
19.02.2020 19:00:00 8,9 7,5 8,3 9,0 23 12 - - ZW 1022,8 17 0,0
19.02.2020 18:00:00 8,6 7,2 8,3 9,0 22 12 - - ZW 1023,3 20 0,0
19.02.2020 17:00:00 9,2 7,1 8,9 8,9 29 16 - - ZW 1023,9 15 0,2
19.02.2020 16:00:00 9,8 7,6 9,4 8,9 28 15 - - ZW 1024,4 11 0,0
19.02.2020 15:00:00 10,4 6,9 10,1 8,9 34 18 - - WZW 1025,2 3,3 0,0
19.02.2020 14:00:00 10,9 7,4 11,1 8,8 36 19 - - WZW 1025,8 9 0,0
19.02.2020 13:00:00 10,8 7,5 10,6 8,8 35 19 - - ZW 1026,5 18 0,0
19.02.2020 12:00:00 10,8 7,8 10,5 8,8 27 15 - - WZW 1026,8 15 0,0
19.02.2020 11:00:00 9,6 8,7 8,8 8,8 21 12 - - ZW 1027,1 17 0,0
19.02.2020 10:00:00 8,7 7,9 7,8 8,8 22 12 - - WZW 1027,3 20 0,2
19.02.2020 09:00:00 8,1 7,3 7,2 8,8 15 8 - - ZW 1027,3 12 0,2
19.02.2020 08:00:00 7,7 6,6 6,9 8,8 14 8 - - ZW 1027,4 13 0,0
19.02.2020 07:00:00 7,3 6,2 5,9 8,8 11 6 16 9 ZZW 1027,3 14 0,0
19.02.2020 06:00:00 6,8 5,7 5,7 8,8 11 6 13 7 ZW 1027,1 13 0,0
19.02.2020 05:00:00 7,8 5,8 7,0 8,8 10 5 - - WZW 1026,9 15 0,0
19.02.2020 04:00:00 8,2 5,1 6,9 8,9 16 8 - - NW 1027,1 17 0,0
19.02.2020 03:00:00 8,1 4,1 6,6 8,8 22 12 - - NW 1027,1 20 0,0
19.02.2020 02:00:00 7,9 6,2 6,8 8,9 23 12 - - WNW 1026,9 19 0,0
19.02.2020 01:00:00 9,2 7,0 8,8 8,9 31 17 - - W 1026,2 16 0,0
19.02.2020 00:00:00 9,2 7,3 8,5 8,9 35 19 - - W 1025,8 15 0,0
18.02.2020 23:00:00 9,2 6,6 8,2 8,9 32 18 - - W 1026,3 17 0,0
18.02.2020 22:00:00 8,9 6,3 8,3 8,9 31 17 - - W 1026,1 18 0,0
18.02.2020 21:00:00 9,2 6,1 8,0 8,9 32 17 - - WZW 1025,9 17 0,0
18.02.2020 20:00:00 8,9 6,3 7,4 8,9 23 12 - - WZW 1026,4 18 0,0
18.02.2020 19:00:00 8,6 6,4 7,2 8,8 28 15 - - WZW 1026,1 20 0,0
18.02.2020 18:00:00 9,1 6,4 8,0 8,8 32 17 - - WZW 1026,0 34 0,0
18.02.2020 17:00:00 9,2 6,6 7,9 8,7 34 18 - - W 1026,6 19 0,8
18.02.2020 16:00:00 10,4 5,2 9,3 8,7 34 19 - - WZW 1026,5 6 0,0
18.02.2020 15:00:00 9,8 5,8 8,2 8,6 42 23 - - W 1027,1 2,8 0,4
18.02.2020 14:00:00 10,7 6,4 8,5 8,6 32 18 - - WZW 1027,5 18 0,0
18.02.2020 13:00:00 11,0 5,1 10,1 8,6 32 17 - - W 1027,9 27 0,0
18.02.2020 12:00:00 10,2 5,2 10,9 8,6 33 18 - - WZW 1028,4 15 0,0
18.02.2020 11:00:00 9,5 5,3 8,0 8,6 26 14 - - WZW 1028,2 20 0,0
18.02.2020 10:00:00 7,2 4,7 4,3 8,7 18 10 - - ZW 1028,5 20 0,0
18.02.2020 09:00:00 5,0 3,8 2,3 8,7 16 9 22 12 ZW 1028,5 43 0,0
18.02.2020 08:00:00 4,5 3,5 2,7 8,8 14 8 - - ZW 1028,0 18 0,0
18.02.2020 07:00:00 5,8 4,0 4,0 8,8 16 8 26 14 WZW 1027,5 20 0,0
18.02.2020 06:00:00 6,4 3,5 3,8 8,8 21 11 29 16 WZW 1027,2 52 0,0
18.02.2020 05:00:00 5,7 3,7 3,4 9,0 19 10 34 18 ZW 1027,4 38 0,0
18.02.2020 04:00:00 5,1 3,6 3,5 9,0 17 9 24 13 WZW 1027,3 39 0,0
18.02.2020 03:00:00 5,4 3,4 3,7 9,0 18 10 28 15 WZW 1027,5 45 0,0
18.02.2020 02:00:00 5,8 3,8 4,5 9,1 20 11 - - WZW 1027,4 46 0,4
18.02.2020 01:00:00 5,7 3,2 2,5 9,1 26 14 41 22 WZW 1027,3 10 0,2
18.02.2020 00:00:00 4,9 2,6 2,7 9,2 14 8 - - ZW 1027,1 19 0,0
17.02.2020 23:00:00 5,6 2,9 3,6 9,2 18 10 - - WZW 1026,7 34 0,0
17.02.2020 22:00:00 5,7 3,2 3,5 9,3 22 12 - - WZW 1026,2 20 0,0
17.02.2020 21:00:00 5,9 3,1 4,3 9,3 24 13 - - WZW 1025,5 37 0,4
17.02.2020 20:00:00 6,5 3,8 4,7 9,4 18 10 - - W 1024,7 17 0,2
17.02.2020 19:00:00 6,9 3,1 5,5 9,4 26 14 - - W 1023,6 20 0,0
17.02.2020 18:00:00 7,9 3,2 6,4 9,4 27 14 - - W 1022,4 40 0,2
17.02.2020 17:00:00 7,9 3,7 5,1 9,4 30 16 - - W 1021,4 29 0,6
17.02.2020 16:00:00 9,2 3,6 4,6 9,3 43 23 - - W 1020,5 9 1,8
17.02.2020 15:00:00 9,9 4,9 7,4 9,3 35 19 - - W 1019,7 3,7 0,2
17.02.2020 14:00:00 8,5 3,9 7,1 9,4 41 22 - - W 1019,6 4,3 0,2
17.02.2020 13:00:00 10,5 4,6 10,6 9,4 42 23 - - W 1018,9 3,7 0,0
17.02.2020 12:00:00 10,2 3,5 8,7 9,4 33 18 - - W 1018,5 7 0,0
17.02.2020 11:00:00 9,5 3,5 8,3 9,5 31 17 59 32 W 1017,7 17 0,0
17.02.2020 10:00:00 8,1 3,7 5,1 9,5 29 16 42 23 WZW 1016,5 19 0,0
17.02.2020 09:00:00 6,2 3,0 4,2 9,6 26 14 63 34 WZW 1015,7 19 0,0
17.02.2020 08:00:00 5,5 2,7 4,5 9,6 41 22 70 38 W 1015,0 15 0,2
17.02.2020 07:00:00 7,6 4,0 6,0 9,7 29 16 46 25 WZW 1013,8 39 0,0
17.02.2020 06:00:00 7,6 4,5 5,7 9,8 25 13 44 24 WZW 1013,5 20 0,0
17.02.2020 05:00:00 7,4 3,8 4,9 9,8 29 16 46 25 WZW 1013,5 53 0,0
17.02.2020 04:00:00 6,4 4,4 5,0 9,9 22 12 48 26 ZW 1013,8 43 0,0
17.02.2020 03:00:00 7,1 4,4 5,8 10,0 38 20 70 38 WZW 1014,1 6 0,4
17.02.2020 02:00:00 7,8 3,5 5,2 10,1 26 14 46 25 ZW 1013,6 20 0,0
17.02.2020 01:00:00 7,6 3,1 6,2 10,1 23 13 34 18 ZW 1013,5 19 0,0
17.02.2020 00:00:00 8,1 3,0 6,2 10,2 25 14 - - ZW 1013,3 20 0,0
16.02.2020 23:00:00 7,6 2,9 5,9 10,3 18 10 - - WZW 1012,7 19 0,0
16.02.2020 22:00:00 7,7 2,8 5,7 10,4 22 12 - - WZW 1011,8 20 0,0
16.02.2020 21:00:00 7,8 3,5 6,0 10,4 23 13 - - WZW 1010,9 18 0,0
16.02.2020 20:00:00 8,2 4,4 6,6 10,5 28 15 - - WZW 1010,1 17 0,0
16.02.2020 19:00:00 8,5 6,3 7,0 10,5 25 14 - - WZW 1008,6 16 0,4
16.02.2020 18:00:00 8,8 7,2 8,0 10,5 32 17 - - W 1007,0 19 0,2
16.02.2020 17:00:00 9,0 7,6 8,2 10,5 35 19 - - ZW 1005,9 19 0,2
16.02.2020 16:00:00 8,6 8,0 8,2 10,5 28 15 - - ZW 1005,2 19 0,2
16.02.2020 15:00:00 8,1 7,5 7,8 10,5 29 15 - - W 1004,5 10 0,8
16.02.2020 14:00:00 7,8 7,5 7,6 10,5 35 19 - - WNW 1002,9 2,4 6,4
16.02.2020 13:00:00 12,9 12,4 12,6 10,4 64 35 - - ZW 998,0 0,5 3,2
16.02.2020 12:00:00 12,9 12,4 12,6 10,3 64 34 - - ZW 998,7 1,2 1,8
16.02.2020 11:00:00 12,9 12,4 12,6 10,3 67 36 - - ZW 998,9 1,2 1,6
16.02.2020 10:00:00 12,9 12,4 12,4 10,3 59 32 - - ZW 999,3 2,2 2,0
16.02.2020 09:00:00 12,8 12,3 12,4 10,2 63 34 - - ZW 999,9 3,2 1,3
16.02.2020 08:00:00 12,8 12,3 12,4 10,2 59 32 - - ZW 1000,0 1,9 2,4
16.02.2020 07:00:00 13,0 12,2 12,6 10,1 60 33 - - ZW 1000,5 1,6 1,6
16.02.2020 06:00:00 13,1 12,3 12,6 10,0 61 33 - - ZW 1000,9 1,8 1,6
16.02.2020 05:00:00 13,3 12,4 12,4 10,0 67 36 - - ZW 1001,2 8 0,4
16.02.2020 04:00:00 12,8 12,3 12,4 9,9 63 34 - - ZW 1002,0 2,0 2,2
16.02.2020 03:00:00 12,7 12,2 12,3 9,9 58 31 - - ZW 1002,6 1,4 1,1
16.02.2020 02:00:00 12,7 12,1 12,2 9,9 55 30 - - ZW 1003,2 8 0,8
16.02.2020 01:00:00 12,6 12,1 12,2 9,8 57 31 - - ZW 1003,7 2,5 1,8
16.02.2020 00:00:00 12,6 12,0 12,2 9,8 55 30 - - ZW 1004,6 4,8 2,2
15.02.2020 23:00:00 12,6 11,8 12,2 9,8 58 31 - - ZW 1005,1 7 0,4
15.02.2020 22:00:00 12,5 12,0 12,1 9,7 55 30 - - ZW 1005,7 4,8 0,0
15.02.2020 21:00:00 12,4 11,9 12,0 9,7 51 28 - - ZW 1006,3 3,0 0,4
15.02.2020 20:00:00 12,4 11,9 12,0 9,6 54 29 - - ZW 1006,7 1,4 1,2
15.02.2020 19:00:00 12,3 11,7 11,8 9,6 57 31 - - ZW 1006,8 7 0,6
15.02.2020 18:00:00 12,1 11,6 11,6 9,5 53 29 - - ZW 1006,6 1,9 1,8
15.02.2020 17:00:00 12,0 11,4 11,4 9,5 58 31 - - ZZW 1006,7 2,2 3,7
15.02.2020 16:00:00 11,9 11,1 11,4 9,4 56 30 - - ZZW 1007,7 1,6 3,8
15.02.2020 15:00:00 11,9 11,0 11,4 9,4 58 32 - - ZZW 1007,5 2,9 1,8
15.02.2020 14:00:00 12,5 10,4 11,5 9,4 57 31 - - ZZW 1008,6 4,0 0,0
15.02.2020 13:00:00 12,1 10,8 11,5 9,3 53 28 - - ZZW 1009,8 4,6 0,0
15.02.2020 12:00:00 12,6 10,1 12,3 9,2 55 30 - - ZZW 1010,4 2,5 0,0
15.02.2020 11:00:00 12,2 10,1 11,9 9,2 46 25 - - ZZW 1011,4 8 0,0
15.02.2020 10:00:00 12,2 10,3 11,6 9,2 44 24 - - ZZW 1012,2 9 0,0
15.02.2020 09:00:00 12,0 10,1 11,3 9,2 44 24 - - ZZW 1013,4 36 0,0
15.02.2020 08:00:00 11,9 10,3 11,2 9,1 40 22 - - ZZW 1013,6 43 0,0
15.02.2020 07:00:00 11,8 10,4 11,2 9,1 40 22 - - ZZW 1013,9 39 0,0
15.02.2020 06:00:00 11,8 10,5 11,3 9,1 41 22 - - ZZW 1014,3 15 0,0
15.02.2020 05:00:00 11,9 10,5 11,3 9,0 36 20 - - ZZW 1015,2 19 0,0
15.02.2020 04:00:00 11,8 10,7 11,2 9,0 32 18 - - ZZW 1015,9 18 0,0
15.02.2020 03:00:00 11,5 11,0 11,2 8,9 31 17 - - ZZW 1016,9 8 0,0
15.02.2020 02:00:00 11,7 11,1 11,1 8,9 33 18 - - ZW 1017,3 10 0,0
15.02.2020 01:00:00 11,6 10,7 11,1 8,9 37 20 - - ZW 1017,4 6 0,0
15.02.2020 00:00:00 11,7 10,6 11,1 8,8 31 17 - - ZZW 1017,7 19 0,0
14.02.2020 23:00:00 11,6 10,5 11,0 8,8 30 16 - - ZZW 1018,4 20 0,0
14.02.2020 22:00:00 11,6 10,5 11,0 8,7 32 18 - - ZZW 1018,8 18 0,0
14.02.2020 21:00:00 11,4 10,6 10,8 8,7 29 16 - - ZZW 1019,1 13 0,0
14.02.2020 20:00:00 11,2 10,6 10,8 8,6 31 17 - - ZZW 1019,5 10 0,0
14.02.2020 19:00:00 11,0 10,5 10,7 8,6 27 14 - - ZZW 1019,3 6 0,0
14.02.2020 18:00:00 11,0 10,4 10,7 8,6 25 14 - - ZZW 1019,5 3,9 0,2
14.02.2020 17:00:00 11,0 10,2 10,7 8,5 32 18 - - ZZW 1019,9 4,5 0,0
14.02.2020 16:00:00 11,1 9,7 10,9 8,4 26 14 - - ZZW 1019,9 14 0,0
14.02.2020 15:00:00 11,0 9,1 10,8 8,4 29 15 - - ZZW 1020,1 12 0,0
14.02.2020 14:00:00 11,2 7,9 11,6 8,4 32 17 - - ZZW 1020,6 15 0,0
14.02.2020 13:00:00 11,3 7,4 11,8 8,3 37 20 - - ZZW 1020,6 16 0,0
14.02.2020 12:00:00 10,8 7,3 11,4 8,3 29 16 - - ZZW 1020,8 14 0,0
14.02.2020 11:00:00 10,4 7,5 9,6 8,3 32 17 - - ZZW 1021,1 13 0,0
14.02.2020 10:00:00 9,4 7,0 7,8 8,3 26 14 - - ZZW 1021,2 13 0,0
14.02.2020 09:00:00 8,4 6,7 6,2 8,4 22 12 - - ZZW 1020,8 10 0,0
14.02.2020 08:00:00 7,6 6,4 4,9 8,4 22 12 - - ZZW 1020,3 9 0,0
14.02.2020 07:00:00 6,6 6,0 2,8 8,4 18 10 - - ZZW 1020,4 8 0,0
14.02.2020 06:00:00 6,2 5,8 3,1 8,5 12 6 - - ZZW 1020,1 8 0,0
14.02.2020 05:00:00 6,7 6,0 3,9 8,5 13 7 - - ZW 1019,8 9 0,0
14.02.2020 04:00:00 7,9 6,7 6,1 8,5 16 8 - - WZW 1019,6 11 0,0
14.02.2020 03:00:00 8,4 6,5 6,9 8,5 14 8 - - WZW 1019,5 12 0,0
14.02.2020 02:00:00 8,2 6,3 6,6 8,5 16 9 - - WZW 1019,7 13 0,0
14.02.2020 01:00:00 8,4 6,0 7,4 8,5 16 9 - - WZW 1018,9 13 0,0
14.02.2020 00:00:00 8,6 5,9 7,6 8,5 17 9 - - W 1018,2 13 0,0
13.02.2020 23:00:00 9,2 5,7 8,6 8,5 20 11 - - W 1017,9 16 0,0
13.02.2020 22:00:00 9,4 5,6 8,7 8,5 27 15 - - WNW 1016,8 18 0,0

tt = temperatuur
td = dauwpunt
tt 5cm = temperatuur 5cm
tt -20cm = temperatuur -20cm
ff = windsnelheid
fx = windstoten
dd = windrichting
ppp = luchtdruk
vv = zicht
rr = neerslag

Weerstations in de omgeving